GW2240 Weather Reports


Display with metric or nautical units.
time (UTC)temp
F
wind
direction
speed
MPH
gust
MPH
rain 1hr
in
rain 24hr
in
rain mn
in
humidity
%
barometer
mb
20260503190021 82 360 1.0 5.0 0.00 0.00 0.00 41 1021.1
20260503184519 80 203 0.0 0.0 0.00 0.00 0.00 47 1021.4
20260503183018 81 346 0.0 2.0 0.00 0.00 0.00 41 1021.6
20260503181516 80 154 0.0 1.0 0.00 0.00 0.00 45 1021.8
20260503180025 80 285 0.0 2.0 0.00 0.00 0.00 43 1022.1
20260503174516 79 159 0.0 1.0 0.00 0.00 0.00 44 1022.4
20260503173013 79 179 0.0 2.0 0.00 0.00 0.00 50 1022.6
20260503171508 78 187 0.0 2.0 0.00 0.00 0.00 51 1022.8
20260503081544 55 20 0.0 0.0 0.00 0.00 0.00 93 1021.0
20260503071542 56 20 0.0 0.0 0.00 0.00 0.00 93 1021.1
20260503054531 57 20 0.0 0.0 0.00 0.00 0.00 92 1021.4
20260503053028 58 20 0.0 0.0 0.00 0.00 0.00 91 1021.2
20260503051534 58 20 0.0 0.0 0.00 0.00 0.00 91 1021.1
20260503050022 58 20 0.0 0.0 0.00 0.00 0.00 90 1021.1
20260503044527 59 20 0.0 0.0 0.00 0.00 0.00 90 1021.0
20260503043022 59 20 0.0 0.0 0.00 0.00 0.00 89 1020.9
20260503041522 59 20 0.0 0.0 0.00 0.00 0.00 88 1020.9
20260503040022 59 19 0.0 0.0 0.00 0.00 0.00 88 1020.9
20260503034521 60 20 0.0 0.0 0.00 0.00 0.00 86 1020.8
20260503033033 61 20 0.0 0.0 0.00 0.00 0.00 86 1020.4
20260503031520 61 20 0.0 0.0 0.00 0.00 0.00 86 1020.4
20260503030037 61 20 0.0 0.0 0.00 0.00 0.00 85 1020.4
20260503024528 62 20 0.0 0.0 0.00 0.01 0.00 83 1020.5
20260503023018 62 20 0.0 0.0 0.00 0.01 0.00 81 1020.3
20260503021520 63 20 0.0 0.0 0.00 0.01 0.00 80 1020.0
20260503020017 63 19 0.0 0.0 0.00 0.01 0.00 78 1019.7
20260503014516 64 20 0.0 0.0 0.00 0.04 0.00 76 1019.5
20260503013016 65 19 0.0 0.0 0.00 0.04 0.00 73 1019.4
20260503011516 66 20 0.0 0.0 0.00 0.04 0.00 70 1019.2
20260503010018 68 20 0.0 0.0 0.00 0.04 0.00 66 1019.2
20260503004517 70 19 0.0 1.0 0.00 0.11 0.00 62 1018.9
20260503003014 70 20 0.0 2.0 0.00 0.11 0.00 59 1018.7
20260503001514 71 3 0.0 2.0 0.00 0.11 0.00 56 1018.6
20260503000027 73 17 1.0 3.0 0.00 0.11 0.00 54 1018.6
20260502234513 73 360 0.0 4.0 0.00 0.26 0.00 53 1018.5
20260502233012 73 357 1.0 4.0 0.00 0.26 0.00 52 1018.5
20260502231512 74 13 0.0 5.0 0.00 0.26 0.00 51 1018.3
20260502230012 74 46 1.0 5.0 0.00 0.26 0.00 51 1018.4
20260502224511 74 341 0.0 5.0 0.00 0.35 0.00 54 1018.4
20260502223014 75 344 1.0 6.0 0.00 0.35 0.00 50 1018.6
20260502221510 75 5 0.0 3.0 0.00 0.35 0.00 50 1018.6
20260502220011 75 21 0.0 5.0 0.00 0.35 0.00 49 1018.6
20260502214512 75 292 0.0 5.0 0.00 0.49 0.00 50 1018.6
20260502213025 75 20 0.0 3.0 0.00 0.49 0.00 51 1018.7
20260502211508 76 9 0.0 5.0 0.00 0.49 0.00 51 1018.7
20260502210009 75 344 1.0 4.0 0.00 0.49 0.00 49 1019.0
20260502204506 76 325 0.0 4.0 0.00 0.63 0.00 53 1019.0
20260502203005 77 303 1.0 6.0 0.00 0.63 0.00 51 1019.3
20260502201507 76 339 0.0 10.0 0.00 0.63 0.00 52 1019.3
20260502200004 76 247 1.0 5.0 0.00 0.63 0.00 51 1019.4
20260502194503 76 346 0.0 7.0 0.00 0.70 0.00 54 1019.6
20260502193002 76 16 0.0 7.0 0.00 0.70 0.00 56 1019.9
20260502191502 76 354 0.0 6.0 0.00 0.70 0.00 53 1020.0